Home   Weather   Cairo   Past weeks

Flag for Egypt Past Weather in Cairo, Egypt — Yesterday and Last 2 Weeks

Now
73 °F

Clear.


Feels Like: 74 °F
Forecast: 70 / 97 °F
Wind: 17 mph from Northeast

Location: Cairo Airport

Current Time: May 29, 2017 at 2:01:47 am

Latest Report: May 29, 2017 at 1:00 am


Visibility: 10 mi

Pressure: 29.89 "Hg

Humidity: 78%

Dew Point: 66 °F

Location of CairoLocation

Past Weather in Cairo — Graph

°F

Cairo Temperature Yesterday

Maximum temperature yesterday: 95 °F (at 1:00 pm)
Minimum temperature yesterday: 72 °F (at 4:30 am)
Average temperature yesterday: 83 °F

High & Low Weather Summary for the Past Weeks

 TemperatureHumidityPressure
High100 °F (May 14, 3:00 pm)88% (May 17, 4:30 am)32.52 "Hg (May 17, 4:30 am)
Low68 °F (May 20, 5:00 am)12% (May 27, 1:30 pm)29.68 "Hg (May 18, 3:30 pm)
Average81 °F44%29.91 "Hg
* Reported May 14 1:00 am — May 29 1:00 am, Cairo. Weather by CustomWeather, © 2017

Note: Actual official high and low records may vary slightly from our data, if they occured in-between our weather recording intervals... More about our weather records

Advertising

Cairo Weather History for the Previous 24 Hours

Scroll right to see more
 ConditionsComfort  
Time TempWeatherWind HumidityBarometerVisibility
1:00 am
Mon, May 29
73 °FClear.17 mph78%29.89 "Hg10 mi
12:30 am73 °FClear.18 mph78%29.89 "Hg10 mi
12:00 am73 °FClear.18 mph78%29.89 "Hg10 mi
11:30 pm
Sun, May 28
75 °FClear.15 mph74%29.89 "Hg10 mi
11:00 pm75 °FClear.15 mph74%29.89 "Hg10 mi
10:30 pm75 °FClear.13 mph74%29.89 "Hg10 mi
9:30 pm79 °FClear.17 mph61%29.89 "Hg10 mi
9:00 pm79 °FClear.15 mph61%29.89 "Hg10 mi
8:30 pm81 °FClear.16 mph58%29.89 "Hg10 mi
8:00 pm82 °FClear.21 mph48%29.86 "Hg10 mi
7:30 pm82 °FClear.17 mph48%29.86 "Hg10 mi
7:00 pm88 °FClear.17 mph46%29.83 "Hg10 mi
6:30 pm90 °FSunny.13 mph33%29.83 "Hg10 mi
6:00 pm91 °FSunny.13 mph26%29.83 "Hg10 mi
5:00 pm93 °FSunny.14 mph21%29.83 "Hg10 mi
4:30 pm93 °FSunny.9 mph21%29.83 "Hg10 mi
4:00 pm95 °FSunny.10 mph19%29.83 "Hg10 mi
3:30 pm95 °FSunny.9 mph19%29.83 "Hg10 mi
3:00 pm95 °FSunny.10 mph19%29.83 "Hg10 mi
2:30 pm95 °FSunny.14 mph18%29.83 "Hg10 mi
2:00 pm95 °FSunny.6 mph16%29.83 "Hg10 mi
1:30 pm93 °FSunny.7 mph17%29.86 "Hg10 mi
1:00 pm95 °FSunny.9 mph16%29.86 "Hg10 mi
12:30 pm93 °FSunny.7 mph17%29.86 "Hg10 mi
12:00 pm93 °FSunny.8 mph17%29.86 "Hg10 mi
11:00 am90 °FSunny.6 mph20%29.86 "Hg10 mi
10:30 am88 °FSunny.10 mph21%29.89 "Hg10 mi
10:00 am88 °FSunny.10 mph21%29.89 "Hg10 mi
9:30 am86 °FSunny.10 mph20%29.89 "Hg10 mi
9:00 am86 °FSunny.10 mph20%29.89 "Hg10 mi
8:30 am81 °FSunny.8 mph39%29.89 "Hg10 mi
8:00 am81 °FSunny.8 mph39%29.89 "Hg10 mi
7:30 am77 °FSunny.8 mph51%29.89 "Hg10 mi
7:00 am77 °FSunny.8 mph51%29.89 "Hg10 mi
6:30 am73 °FSunny.6 mph69%29.89 "Hg10 mi
6:00 am73 °FSunny.6 mph69%29.89 "Hg10 mi
5:30 am72 °FSunny.9 mph78%29.86 "Hg10 mi
5:00 am72 °FSunny.9 mph78%29.86 "Hg10 mi
4:30 am72 °FClear.8 mph78%29.86 "Hg10 mi
4:00 am73 °FClear.8 mph78%29.86 "Hg10 mi
3:30 am73 °FClear.8 mph78%29.86 "Hg10 mi
3:00 am73 °FClear.8 mph78%29.89 "Hg10 mi
2:30 am73 °FClear.8 mph74%29.89 "Hg10 mi
2:00 am73 °FClear.10 mph74%29.89 "Hg10 mi
Weather by CustomWeather, © 2017

See weather overviewHow to use our weather pages